TIME,DELAY(SENSOR),PRES,OXYGEN,RAWTEMP,T(OPTODE),TCPHASE,FLUOR,BETA(BETA700),BETA(BETA412),BETA(BETA440),CDOM,C(CSC),ED(ED412.40),ED(ED444.00),ED(ED489.70),ED(ED554.30),LU(LU411.80),LU(LU443.40),LU(LU489.60),LU(LU554.10),COMP,TILTX,TILTY,CHECK
1336534407,5807,896.5599975585938000,43.1590118408203100,662.7235717773438000,4.5382671356201170,54.5601005554199200,52,102,87,79,83,15302,2147755776,2147421686,2148002742,2147875894,2147643593,2147060790,2148261641,2147203693,3495,4,14,12068
1336538003,5810,971.0399780273438000,46.3950614929199200,670.0394287109375000,4.2968959808349610,54.1752700805664060,53,100,89,80,83,15302,2147756470,2147419840,2148006400,2147873042,2147644745,2147060169,2148260489,2147203419,1657,4,14,41318
1336541603,5810,967.7600097656250000,47.2685813903808600,672.7114257812500000,4.2085900306701660,54.0843200683593750,53,101,91,79,84,15300,2147761334,2147422125,2148005421,2147873737,2147644717,2147060032,2148263314,2147201115,182,4,13,1778
1336545203,5808,990.4400024414062000,47.2009696960449200,672.6497802734375000,4.2106227874755860,54.0967292785644500,53,102,88,80,84,15298,2147757092,2147420534,2148005814,2147873563,2147645266,2147060068,2148265526,2147203282,322,4,13,31514
1336548803,5808,992.4899902343750000,46.9858589172363300,672.5106201171875000,4.2152290344238280,54.1232604980468750,53,99,91,80,83,15286,2147757961,2147421138,2148007990,2147871469,2147647186,2147059419,2148262473,2147200173,134,4,13,52869
1336552403,5809,995.4299926757812000,46.8440704345703100,672.5891113281250000,4.2126312255859375,54.1400794982910160,53,100,88,79,84,15297,2147758390,2147421156,2148005659,2147871314,2147645412,2147058212,2148267117,2147202605,3213,4,13,43117
1336556003,5808,997.7500000000000000,46.6977691650390600,672.6815185546875000,4.2095780372619630,54.1663398742675800,53,100,87,80,84,15285,2147759058,2147419739,2148008539,2147873709,2147642770,2147059062,2148265526,2147199908,817,4,13,45011
1336559603,5808,1002.9299926757812000,46.4209899902343750,672.1392822265625000,4.2275028228759770,54.1981697082519500,53,102,88,77,85,15283,2147758052,2147423232,2148007835,2147874404,2147642203,2147057938,2148262491,2147199652,524,4,13,33675
1336563203,5808,1004.0300292968750000,46.1997489929199200,671.5155029296875000,4.2481207847595215,54.2235107421875000,53,100,88,79,84,15276,2147757522,2147422244,2148005632,2147872420,2147643629,2147056768,2148265243,2147204352,3498,4,13,26584
1336566803,5808,1007.5300292968750000,46.2072105407714840,671.8574829101562000,4.2368159294128420,54.2216911315918000,52,101,88,78,85,15277,2147758171,2147420013,2148006253,2147873627,2147644150,2147060955,2148257536,2147202541,432,4,14,27865
1336570403,5810,1003.6099853515625000,46.0472488403320300,671.8613281250000000,4.2366919517517090,54.2503318786621100,53,100,90,80,84,15273,2147759232,2147419428,2148005531,2147874468,2147644854,2147061613,2148262070,2147202304,2820,4,14,54013
1336574003,5809,1007.3800048828125000,46.0216598510742200,671.6641845703125000,4.2432060241699220,54.2485618591308600,53,101,88,79,83,15216,2147759268,2147421385,2148007808,2147875492,2147642358,2147062537,2148264137,2147201097,181,4,13,58946
1336577603,5811,1009.0300292968750000,45.7198410034179700,672.1395874023438000,4.2274928092956540,54.2998809814453100,52,98,89,79,83,15211,2147759040,2147419520,2148004827,2147870336,2147645220,2147061814,2148261485,2147203849,235,4,13,13696
1336581203,5810,1004.0499877929688000,46.1264686584472660,672.6240234375000000,4.2114791870117190,54.2497596740722660,52,99,88,81,83,15199,2147759945,2147424786,2148004726,2147876141,2147642496,2147061458,2148257910,2147204187,501,4,13,31824
1336584803,5813,1010.0800170898438000,45.9025802612304700,672.3029785156250000,4.2220897674560550,54.2741203308105500,53,99,90,80,84,15197,2147759579,2147421531,2148005632,2147875309,2147643949,2147062372,2148259538,2147202688,96,5,13,49568
1336588403,5806,1016.9600219726562000,45.7486190795898440,671.7791137695312000,4.2394099235534670,54.2905502319335940,52,101,84,80,83,15195,2147757458,2147420900,2148005888,2147872237,2147643273,2147060269,2148263460,2147201837,481,4,13,56995
1336592003,5807,995.5900268554688000,45.9604911804199200,672.5366821289062000,4.2143630981445310,54.2714805603027340,53,102,89,79,83,15194,2147759652,2147421385,2148003328,2147873728,2147642157,2147059108,2148262034,2147204973,126,4,14,53862
1336595603,5807,998.7399902343750000,46.3894691467285160,673.4763183593750000,4.1832919120788570,54.2214088439941400,53,101,88,79,82,15196,2147758610,2147421421,2148002752,2147874240,2147643437,2147059044,2148257060,2147205302,154,4,13,64473
1336599203,5810,1004.3599853515625000,46.9008407592773440,674.0444946289062000,4.1644988059997560,54.1545982360839840,52,98,88,79,83,15193,2147759808,2147421714,2148005275,2147873974,2147642989,2147061942,2148263753,2147204077,3477,4,14,3499
1336602803,5809,1001.0599975585938000,46.3452110290527340,674.2456054687500000,4.1578459739685060,54.2381095886230500,53,99,86,80,84,15194,2147758802,2147423414,2148003840,2147873728,2147643099,2147061357,2148263817,2147205110,340,4,13,3810
1336606403,5805,997.7600097656250000,48.3085098266601560,675.5067749023438000,4.1161141395568850,53.9745712280273440,52,100,84,79,83,15197,2147759067,2147420379,2148005321,2147875958,2147644004,2147059730,2148261760,2147202185,3486,4,13,30781
1336610003,5810,1009.3300170898438000,48.6028289794921900,675.9677734375000000,4.1008567810058590,53.9395484924316400,52,101,90,79,84,15196,2147756022,2147422006,2148006025,2147877540,2147640886,2147061440,2148261101,2147200530,3331,4,13,39652
1336613603,5809,1010.4799804687500000,47.1757698059082000,674.3596801757812000,4.1540718078613280,54.1194686889648440,52,105,90,79,84,15221,2147757979,2147422363,2148008466,2147871030,2147642121,2147061814,2148259364,2147203428,148,4,13,24739
1336617203,5807,1004.3499755859375000,46.8115386962890600,674.6762695312500000,4.1435990333557130,54.1717491149902340,54,99,90,79,83,15220,2147758948,2147423012,2148009920,2147874770,2147644169,2147061513,2148262720,2147205284,3493,4,13,44034
1336620803,5806,1011.9699707031250000,47.3958892822265600,674.3267211914062000,4.1551628112792970,54.0864601135253900,52,100,90,78,85,15219,2147760987,2147418221,2148007689,2147872877,2147642148,2147061760,2148262948,2147200393,3422,4,13,36261
1336624403,5811,1014.4199829101562000,46.3845481872558600,673.2943725585938000,4.1893100738525390,54.2167510986328100,51,99,90,79,83,15218,2147756580,2147422537,2148007744,2147873216,2147642486,2147066276,2148264082,2147206272,61,5,13,37236
1336628003,5807,1006.6599731445312000,46.5075111389160160,673.8663940429688000,4.1703910827636720,54.2047080993652340,53,100,88,78,84,15218,2147756571,2147421659,2148007954,2147872749,2147644571,2147066505,2148262601,2147203300,386,4,13,48105
1336631603,5804,1002.0399780273438000,46.7161788940429700,673.8306884765625000,4.1715698242187500,54.1792411804199200,52,102,87,80,84,15220,2147758848,2147419885,2148005814,2147872338,2147642925,2147058569,2148260333,2147203812,719,4,13,48155
1336635203,5810,1013.4500122070312000,46.7320404052734400,673.5261840820312000,4.1816430091857910,54.1711082458496100,53,152,90,78,83,15218,2147760877,2147423771,2148005659,2147874322,2147642779,2147062482,2148261156,2147203510,235,4,13,38637
1336638803,5810,1011.7700195312500000,46.4636993408203100,673.1068725585938000,4.1955089569091800,54.2004508972168000,53,392,88,81,84,15218,2147757961,2147425920,2148005568,2147876150,2147644022,2147063972,2148266742,2147205979,3449,4,13,62249
1336642403,5808,1014.4600219726562000,46.0644798278808600,673.5272827148438000,4.1816082000732420,54.2689208984375000,53,99,90,80,84,15216,2147762669,2147422171,2148007753,2147874221,2147643501,2147057901,2148258038,2147202459,38,4,13,3640
1336646003,5808,1010.2700195312500000,45.6120491027832000,673.5206909179688000,4.1818261146545410,54.3324203491210940,52,102,90,79,84,15215,2147758537,2147422244,2148006573,2147872795,2147641499,2147058880,2148259794,2147202450,242,4,13,33341
1336649603,5809,1012.5100097656250000,46.8752098083496100,674.1511230468750000,4.1609749794006350,54.1563682556152340,53,101,89,79,83,15217,2147760155,2147422180,2148008164,2147874724,2147643876,2147056749,2148263725,2147204800,247,4,13,44889
1336653203,5809,1023.0200195312500000,46.1832199096679700,672.4244995117188000,4.2180747985839840,54.2324485778808600,52,100,91,80,83,15214,2147758619,2147422427,2148005997,2147870619,2147642870,2147060918,2148263277,2147203456,96,5,13,12112
1336656803,5809,1013.5599975585938000,46.0552482604980500,672.8583984375000000,4.2037281990051270,54.2602500915527340,54,100,92,79,83,15216,2147759414,2147419629,2148008155,2147876288,2147640896,2147060781,2148262189,2147199085,98,5,13,50594
1336660403,5808,1014.4799804687500000,46.6021614074707000,674.8826904296875000,4.1367678642272950,54.2064895629882800,53,99,92,80,84,15212,2147757915,2147420827,2148007350,2147877348,2147642267,2147060470,2148262601,2147203108,3409,4,13,22453
1336664003,5808,1020.4600219726562000,45.9974594116210940,672.6442871093750000,4.2108078002929690,54.2635993957519500,52,99,89,79,84,15212,2147763008,2147421741,2148006765,2147876068,2147642816,2147061010,2148264731,2147201737,340,4,13,4001
1336667603,5810,1016.2600097656250000,45.6424903869628900,672.9617919921875000,4.2003078460693360,54.3180885314941400,52,98,91,80,85,15209,2147760466,2147419355,2148003483,2147871890,2147641993,2147059840,2148264795,2147205540,3531,4,13,31751
1336671203,5808,1020.3699951171875000,45.6352195739746100,672.5900268554688000,4.2126030921936035,54.3200111389160160,53,99,91,80,84,15205,2147755437,2147424009,2148006336,2147875556,2147644324,2147055689,2148261522,2147203355,68,5,13,4856
1336674803,5807,1020.6300048828125000,45.8765907287597660,672.5864868164062000,4.2127170562744140,54.2801399230957000,53,100,88,80,83,15204,2147757248,2147419894,2148006674,2147877915,2147640064,2147063113,2148260745,2147205229,308,4,13,28448
1336678403,5807,1011.5800170898438000,45.7615509033203100,673.4094238281250000,4.1855068206787110,54.3081092834472660,53,100,86,80,83,15207,2147759360,2147423250,2148007561,2147876114,2147639963,2147063405,2148266925,2147201691,2551,4,13,27518
1336678856,5811,1013.1099853515625000,45.9047698974609400,673.5637207031250000,4.1804051399230960,54.2915115356445300,53,102,91,81,83,15282,2147758153,2147422573,2148004818,2147873773,2147643008,2147057316,2148259958,2147200521,295,4,13,52656
